Location: Anuling
(14.1239°N, 120.8922°E)
Time: 05:20:12
(UTC+00:00)

Cosmos 1862 Rocket - Pass Details

Date: 14 January 2026
Orbit: 596 x 627 km, 82.5° (Epoch: 7 February)

Event Time Altitude Azimuth Distance (km) Brightness Sun altitude
Rises 10:55:43 0° 180° (S) 2,898 7.2 -16.6°
Reaches altitude 10° 10:57:57 10° 178° (S) 1,994 6.4 -17.1°
Maximum altitude 11:02:21 73° 93° (E) 655 3.4 -18.1°
Enters shadow 11:05:41 17° 11° (N) 1,567 5.3 -18.9°
